sat.trackr.live / text

‹ back to catalog

STARLINK-36503

NORAD 67411 · 2026-005H

PAYLOAD ACTIVE UNKNOWN

§ Identity

Operator
Country
US
Launch date
2026-01-12
Launch site
AFETR
Launch vehicle
Mass (kg)
RCS (m²)

Purposes: comms

External: N2YO · Heavens-Above · Gunter

§ Orbital elements

Epoch: 2026-05-25T00:49:49.217952Z

Period
94.27 min
Inclination
43.0026°
Eccentricity
0.0000905
Mean motion
15.27585725 rev/d
Perigee alt
482.4 km
Apogee alt
483.7 km
Semi-major
6,861.2 km
B*
2.3475e-4
RAAN
166.7221°
Arg perigee
272.1068°
Mean anomaly
87.9680°
Rev number
2,037

§ Raw data

STARLINK-365031 67411U 26005H   26145.03459743  .00006204  00000+0  23475-3 0  99902 67411  43.0026 166.7221 0000905 272.1068  87.9680 15.27585725 20378

JSON: /api/v1/satellites/67411 · /tle

For live sub-satellite position, see the globe view (requires WebGL).

§ Visibility from observer

Set your observer location to see the next 7 days of passes ≥ 10°. The values pass through the URL so the page stays shareable.

No JS? Fill the form by hand. The geolocation button needs JavaScript.